Simultaneous Nadir Overpasses (SNOs) Predictions

Prediction of SNOs between METOP-B and NOAA-19 Satellite Orbit:

Table of predicted SNOs for the next 14.0 days since TLE Epoch: 8/20/2022
Index Date (METOP-B) Time (METOP-B) Lat,Lon (METOP-B) SZA (METOP-B ) Date (NOAA-19) Time (NOAA-19) Lat,Lon (NOAA-19) SZA (NOAA-19 ) Distance(km) Time Diff (sec)
1 08/21/2022 07:40:03 80.87, 98.52 70.25 08/21/2022 07:38:59 80.88, 98.66 70.25 2.77 64
2 08/21/2022 08:30:43 -80.88, -93.88 109.70 08/21/2022 08:30:04 -80.88, -94.03 109.74 2.74 39
3 08/21/2022 09:21:24 80.88, 73.37 70.30 08/21/2022 09:20:58 80.88, 73.46 70.30 1.47 26
4 08/21/2022 10:12:05 -80.87,-119.38 109.70 08/21/2022 10:12:03 -80.87,-119.23 109.69 2.58 2
5 08/21/2022 11:02:46 80.87, 47.87 70.30 08/21/2022 11:02:58 80.88, 47.88 70.32 0.88 12
6 08/21/2022 11:53:27 -80.86,-144.88 109.70 08/21/2022 11:54:03 -80.88,-144.80 109.67 1.79 36
7 08/21/2022 12:44:07 80.88, 22.72 70.35 08/21/2022 12:44:57 80.87, 22.68 70.36 1.05 50
8 08/21/2022 13:34:48 -80.87,-170.03 109.65 08/21/2022 13:36:02 -80.87,-170.01 109.62 0.48 74
9 09/01/2022 13:57:23 80.89, 4.54 74.29 09/01/2022 13:56:20 80.88, 4.55 74.26 0.71 63
10 09/01/2022 14:48:04 -80.89, 171.84 105.71 09/01/2022 14:47:25 -80.88, 171.77 105.73 1.29 39
11 09/01/2022 15:38:45 80.88, -20.97 74.29 09/01/2022 15:38:20 80.88, -21.02 74.28 1.08 25
12 09/01/2022 16:29:26 -80.88, 146.34 105.70 09/01/2022 16:29:25 -80.88, 146.19 105.71 2.62 1
13 09/01/2022 17:20:06 80.89, -46.12 74.34 09/01/2022 17:20:19 80.88, -46.23 74.33 2.26 13
14 09/01/2022 18:10:48 -80.87, 120.83 105.70 09/01/2022 18:11:24 -80.88, 120.98 105.66 2.91 36
15 09/01/2022 19:01:28 80.88, -71.62 74.35 09/01/2022 19:02:19 80.88, -71.81 74.35 3.29 51



Historial Predications of SNOs between METOP-B and NOAA-19
